Location: Amon Carter Post Office
(32.8281°N, 97.0484°W)
Time: 23:59:35
(UTC+00:00)

Lacrosse 5 rocket - Pass Details

Date: 05 July 2022
Orbit: 456 x 628 km, 57.0° (Epoch: 09 August)

Event Time Altitude Azimuth Distance (km) Brightness Sun altitude
Rises 02:46:34 0° 325° (NW) 2,593 6.4 -12.5°
Reaches altitude 10° 02:48:42 10° 328° (NNW) 1,734 5.1 -12.9°
Maximum altitude 02:52:35 64° 51° (NE) 592 1.4 -13.5°
Enters shadow 02:54:57 24° 127° (SE) 1,167 2.3 -13.9°
